EHI
0 0 0 0 0 0 0 0 0 0 0 0 0 0 0 0 0 0 0 0 0 0 0 0 0 0 0 0 0 0 0 0 0 0 0 0 0 0 0 0 0 0 0
0 0 0 0 0 0 0 0 0 0 0 0 0 0 0 0 0 0 0 0 0 0 0 0 0 0 0 0 0 0 0 0 0 0 0 0 0 0 0 0 0 0 0
0 0 0 0 0 0 0 0 0 0 0 0 0 0 0 0 0 0 0 0 0 0 0 0 0 0 0 0 0 0 0 0 0 0 0 0 0 0 0 0 0 0 0
0 0 0 0 0 0 0 0 0 0 0 0 0 0 0 0 0 0 0 0 0 0 0 0 0 0 0 0 0 0 0 0 0 0 0 0 0 0 0 0 0 0 0
0 0 0 0 0 0 0 0 0 0 0 0 0 0 0 0 0 0 0 0 0 0 0 0 0 0 0 0 0 0 0 0 0 0 0 0 0 0 0 0 0 0 0
0 0 0 0 0 0 0 0 0 0 0 0 0 0 0 0 0 0 0 0 0 0 0 0 0 0 0 0 0 0 0 0 0 0 0 0 0 0 0 0 0 0 0
0 0 0 0 0 0 0 0 0 0 0 0 0 0 0 0 0 0 0 0 0 0 0 0 0 0 0 0 0 0 0 0 0 0 0 0 0 0 0 0 0 0 0
0 0 0 0 0 0 0 0 0 0 0 0 0 0 0 0 0 0 0 0 0 0 0 0 0 0 0 0 0 0 0 0 0 0 0 0 0 0 0 0 0 0 0
0 0 0 0 0 0 0 0 0 0 0 0 0 0 0 0 0 0 0 0 0 0 0 0 0 0 0 0 0 0 0 0 0 0 0 0 0 0 0 0 0 0 0
0 0 0 0 0 0 0 0 0 0 0 0 0 0 0 0 0 0 0 0 0 0 0 0 0 0 0 0 0 0 0 0 0 0 0 0 0 0 0 0 0 0 0
0 0 0 0 0 0 0 0 0 0 0 0 0 0 0 0 0 0 0 0 0 0 0 0 0 0 0 0 0 0 0 0 0 0 0 0 0 0 0 0 0 0 0
0 0 0 0 0 0 0 0 0 0 0 0 0 0 0 0 0 0 0 0 0 0 0 0 0 0 0 0 0 0 0 0 0 0 0 0 0 0 0 0 0 0 0
0 0 0 0 0 0 0 0 0 0 0 0 0 0 0 0 0 0 0 0 0 0 0 0 0 0 0 0 0 0 0 0 0 0 0 0 0 0 0 0 0 0 0
0 0 0 0 0 0 0 0 0 0 0 0 0 0 0 0 0 0 0 0 0 0 0 0 0 0 0 0 0 0 0 0 0 0 0 0 0 0 0 0 0 0 0
0 0 0 0 0 0 0 0 0 0 0 0 0 0 0 0 0 0 0 0 0 0 0 0 0 0 0 0 0 0 0 0 0 0 0 0 0 0 0 0 0 0 0
0 0 0 0 0 0 0 0 0 0 0 0 0 0 0 0 0 0 0 0 0 0 0 0 0 0 0 0 0 0 0 0 0 0 0 0 0 0 0 0 0 0 0
0 0 0 0 0 0 0 0 0 0 0 0 0 0 0 0 0 0 0 0 0 0 0 0 0 0 0 0 0 0 0 0 0 0 0 0 0 0 0 0 0 0 0
0 0 0 0 0 0 0 0 0 0 0 0 0 0 0 0 0 0 0 0 0 0 0 0 0 0 0 0 0 0 0 0 0 0 0 0 0 0 0 0 0 0 0
0 0 0 0 0 0 0 0 0 0 0 0 0 0 0 0 0 0 0 0 0 0 0 0 0 0 0 0 0 0 0 0 0 0 0 0 0 0 0 0 0 0 0
0 0 0 0 0 0 0 0 0 0 0 0 0 0 0 0 0 0 0 0 0 0 0 0 0 0 0 0 0 0 0 0 0 0 0 0 0 0 0 0 0 0 0
0 0 0 0 0 0 0 0 0 0 0 0 0 0 0 0 0 0 0 0 0 0 0 0 0 0 0 0 0 0 0 0 0 0 0 0 0 0 0 0 0 0 0
0 0 0 0 0 0 0 0 0 0 0 0 0 0 0 0 0 0 0 0 0 0 0 0 0 0 0 0 0 0 0 0 0 0 0 0 0 0 0 0 0 0 0
0 0 0 0 0 0 0 0 0 0 0 0 0 0 0 0 0 0 0 0 0 0 0 0 0 0 0 0 0 0 0 0 0 0 0 0 0 0 0 0 0 0 0
0 0 0 0 0 0 0 0 0 0 0 0 0 0 0 0 0 0 0 0 0 0 0 0 0 0 0 0 0 0 0 0 0 0 0 0 0 0 0 0 0 0 0
0 0 0 0 0 0 0 0 0 0 0 0 0 0 0 0 0 0 0 0 0 0 0 0 0 0 0 0 0 0 0 0 0 0 0 0 0 0 0 0 0 0 0
0 0 0 0 0 0 0 0 0 0 0 0 0 0 0 0 0 0 0 0 0 0 0 0 0 0 0 0 0 0 0 0 0 0 0 0 0 0 0 0 0 0 0
Wind_Speed
2 2 2 2 2 2 3 3 3 3 3 3 3 4 4 3 3 2 2 4 5 6 6 6 5 5 5 5 5 5 5 5 5 5 6 6 7 7 8 8 8 8 8
3 3 3 3 3 3 3 3 4 3 3 3 3 4 4 3 3 3 2 3 4 5 6 6 6 6 6 6 6 5 5 6 6 7 7 7 8 8 9 9 9 10 10
3 3 3 3 3 3 3 2 3 2 2 3 3 3 3 3 3 3 3 2 2 4 5 6 6 6 6 6 6 6 6 6 7 8 8 8 9 9 10 10 11 11 11
3 3 3 3 3 3 3 3 3 2 2 2 2 3 3 3 4 4 3 2 2 2 3 5 5 5 6 6 6 7 7 7 7 8 8 9 10 10 10 11 11 11 11
4 3 3 3 3 3 3 3 3 3 2 2 2 2 2 3 3 3 3 3 3 2 2 3 3 4 4 5 6 7 8 8 8 8 9 10 10 11 11 11 11 11 11
4 4 3 3 3 3 3 3 3 2 2 2 2 2 2 2 2 3 4 3 2 3 2 1 1 2 3 5 6 8 9 9 9 9 10 10 11 11 12 12 12 12 13
3 3 3 3 3 3 3 4 3 3 2 1 1 1 1 2 3 3 3 3 3 3 2 2 1 1 2 4 6 8 9 11 11 11 11 11 11 12 12 13 13 13 13
3 3 3 3 3 3 3 3 3 2 1 2 2 1 1 2 2 2 2 3 2 1 2 2 2 2 2 2 4 7 9 11 12 12 12 12 12 13 13 13 13 14 14
2 2 3 3 3 3 4 4 4 4 3 2 2 3 2 3 1 1 2 2 2 2 2 2 3 3 3 2 3 5 8 10 13 14 14 14 14 14 14 14 15 15 15
2 2 2 3 3 3 3 3 3 3 3 2 1 1 1 2 2 1 1 1 2 3 3 2 3 4 3 3 4 6 9 10 13 15 15 16 15 15 15 16 16 16 15
1 1 1 2 2 2 3 2 2 3 2 3 2 1 1 1 1 2 2 2 2 2 3 3 3 3 3 3 3 6 9 11 14 16 16 17 17 16 16 16 16 16 16
1 0 1 1 2 2 3 3 3 3 2 2 2 2 2 2 2 2 2 2 3 2 3 3 3 3 3 3 5 8 9 11 14 16 17 17 17 17 16 17 17 16 17
1 1 1 1 1 2 2 3 3 3 3 3 3 2 1 1 2 2 2 2 2 2 2 2 3 3 2 3 4 8 9 12 13 15 17 18 17 17 16 17 17 17 17
2 1 1 1 1 1 2 2 2 2 2 2 2 2 1 2 2 2 2 1 2 3 2 3 2 3 2 3 6 8 7 12 13 15 17 17 17 16 16 16 16 16 17
1 1 2 2 1 2 2 2 2 2 2 2 2 2 1 1 1 1 1 2 3 3 4 3 2 2 3 3 6 5 6 11 14 15 16 16 16 16 16 15 15 15 16
1 1 1 2 1 1 1 2 2 2 2 2 2 2 1 1 1 1 1 2 2 3 5 3 3 4 4 5 8 6 7 13 13 15 16 15 15 15 15 15 15 15 15
1 1 1 1 1 1 2 2 1 2 2 2 2 2 1 1 1 1 1 1 2 2 5 4 3 4 4 5 6 5 6 6 7 14 15 16 15 15 15 15 15 15 15
1 1 1 1 1 2 2 2 2 2 2 2 2 1 1 0 0 1 1 1 2 2 4 6 4 3 4 5 6 6 6 6 6 12 14 15 15 15 15 15 14 14 14
0 0 1 1 1 1 1 2 2 2 2 2 2 2 1 1 1 1 1 2 2 2 3 4 5 3 4 4 5 6 6 6 7 9 11 13 14 15 15 14 14 14 13
1 1 1 1 1 1 2 2 2 2 2 1 1 2 2 2 2 2 2 2 2 2 3 3 4 4 4 4 4 5 6 5 6 6 8 10 12 14 14 14 13 12 12
1 1 1 1 1 1 2 2 2 2 2 2 1 1 1 2 2 2 2 2 2 2 3 3 4 4 4 4 4 4 7 7 7 4 6 6 6 6 7 10 11 11 11
1 1 1 1 1 1 2 3 3 2 2 2 1 0 1 1 2 3 3 3 3 3 3 3 4 5 5 5 5 5 6 6 7 3 6 7 4 6 5 5 10 12 11
1 1 1 1 1 1 2 2 2 2 2 1 1 1 1 1 2 1 3 4 4 5 5 4 5 6 6 5 6 6 6 6 7 5 6 7 4 6 6 6 11 10 10
2 1 1 1 1 1 2 2 2 2 1 1 1 1 1 1 2 2 1 2 3 3 4 3 4 5 6 5 5 6 7 7 7 4 3 6 5 6 6 5 9 9 9
2 2 2 2 1 1 2 2 1 1 1 1 1 1 1 2 3 3 2 2 3 4 4 5 6 6 8 8 6 4 4 5 6 4 2 3 4 5 5 5 6 8 9
2 2 1 2 2 1 2 2 1 1 1 1 1 1 3 3 4 4 2 2 4 4 4 4 4 5 5 6 6 4 4 4 4 4 2 3 3 4 5 4 4 4 5
Wind_Direction
194 195 194 189 188 183 182 181 182 184 186 188 191 186 190 195 197 199 218 223 227 235 241 242 240 248 254 259 265 270 278 280 286 290 294 297 299 301 300 299 297 296 295
195 199 200 195 195 191 189 189 191 190 194 194 199 197 199 200 203 203 208 221 223 232 242 247 250 256 263 266 268 272 277 280 284 285 288 291 294 296 294 290 290 289 289
193 195 201 201 200 191 185 182 187 186 194 199 207 209 205 206 203 207 206 213 225 233 240 248 256 259 265 271 274 278 282 284 286 287 287 288 289 291 291 290 289 288 287
202 192 195 203 197 186 182 183 185 190 200 204 215 219 212 206 208 206 204 208 213 227 237 244 258 263 267 273 280 284 286 288 286 286 286 288 288 289 291 292 292 289 288
207 199 199 197 188 182 186 189 185 187 197 207 219 225 219 213 211 204 205 207 208 210 220 238 254 267 276 278 280 284 287 289 287 287 286 286 287 289 289 290 292 289 287
213 203 201 194 184 180 187 189 180 183 193 198 215 233 235 228 214 211 212 211 209 211 214 227 242 269 282 287 287 288 290 292 290 288 286 285 286 286 287 289 290 288 285
217 201 200 193 186 188 193 186 175 177 195 171 162 251 270 235 223 222 216 211 213 212 207 212 220 251 281 297 299 299 297 295 293 289 286 285 285 286 287 286 286 287 287
223 205 194 193 190 186 184 182 170 171 178 166 157 153 256 276 246 233 226 218 219 208 210 225 226 239 257 266 294 304 306 300 295 291 289 287 285 285 285 286 286 286 285
229 207 199 193 190 186 187 187 179 179 181 189 183 169 181 222 260 261 230 220 215 217 229 228 230 240 251 256 271 293 300 301 299 295 290 288 286 285 285 284 284 284 284
244 214 191 180 180 182 182 189 183 181 171 188 197 204 194 164 178 256 270 239 228 230 237 252 250 247 248 254 274 294 299 296 293 295 295 290 287 286 285 285 285 286 286
262 225 182 173 177 175 174 178 177 178 181 187 185 176 177 185 191 193 251 261 266 248 244 246 241 240 248 258 265 285 299 296 294 293 293 295 291 288 287 286 285 284 285
241 223 173 170 181 176 175 179 184 178 186 185 189 190 185 180 188 196 228 248 259 257 261 250 238 237 244 254 274 296 297 295 294 294 294 293 296 291 288 287 286 285 284
242 228 197 184 177 178 175 172 175 177 181 187 194 203 198 205 197 199 219 242 259 264 258 249 239 243 259 264 278 295 292 294 293 293 293 293 294 297 289 287 286 286 286
236 205 187 174 155 158 162 155 162 178 168 178 187 185 191 215 210 203 203 214 272 269 254 255 255 241 263 276 284 294 285 294 294 293 292 294 295 296 292 286 285 285 285
225 177 171 169 167 166 166 158 162 168 159 171 176 173 189 215 211 226 219 211 221 263 271 254 257 274 282 278 293 287 281 291 295 295 293 293 293 293 294 288 285 284 285
212 165 155 158 161 170 168 160 151 156 156 165 163 163 179 190 208 223 227 241 233 240 263 266 264 286 294 294 298 291 284 298 297 296 294 293 292 290 292 289 284 283 283
179 165 170 164 170 175 168 153 152 151 156 164 166 166 178 172 186 217 234 239 251 247 264 280 273 283 286 292 298 291 287 286 289 297 297 297 295 292 290 290 286 283 281
185 177 175 173 182 184 175 165 168 161 166 173 172 158 181 165 178 234 235 247 256 254 256 279 292 293 290 297 298 297 298 296 289 297 299 298 295 293 292 290 289 284 282
120 131 148 159 166 178 170 165 163 162 173 178 173 174 190 169 239 266 270 265 269 275 260 270 287 291 292 300 305 299 296 293 296 300 301 302 299 296 293 291 289 286 284
135 147 141 151 156 163 160 154 144 153 159 168 179 184 192 196 227 254 267 266 273 280 272 271 282 292 292 299 304 306 310 307 302 301 301 303 301 302 299 297 294 290 285
141 131 119 118 132 162 170 155 146 151 157 164 181 200 209 221 237 254 264 265 265 270 275 278 285 296 299 312 310 305 303 307 297 287 300 298 296 292 293 298 297 295 292
132 133 144 137 146 167 172 164 146 146 142 145 159 199 236 225 258 283 290 290 284 273 273 274 285 292 296 294 296 299 302 309 303 308 307 298 293 292 293 289 302 305 300
153 154 163 162 176 191 176 170 157 142 141 156 172 196 283 286 295 284 301 312 301 289 278 269 278 283 289 293 294 293 294 294 284 297 303 290 293 294 296 293 302 303 307
174 183 193 189 183 198 171 162 164 131 134 163 200 214 238 278 289 299 299 303 295 291 290 276 268 279 286 289 285 282 283 284 281 280 278 283 296 297 301 292 299 304 305
178 184 187 183 179 203 182 175 140 125 143 220 249 245 252 267 281 301 299 286 292 292 303 299 294 293 296 298 300 297 299 300 298 292 286 289 296 303 297 288 300 310 309
182 178 183 184 187 206 206 190 153 139 176 243 273 265 263 274 287 299 283 273 286 294 308 316 312 310 304 303 307 286 279 285 296 292 292 301 296 316 309 296 301 305 308